Address 0x979185a97875250b9cb251218232c86e037f0e58

 
 
Txn Hash Method
Block
From
To
Value [Txn Fee]
0x1e916033065a47066c5a20938e1ed1cd4930d512c6f5ab38e26dd51a1b640cadGive Me This Awe...118777332021-10-18 10:49:065 days 22 hrs ago0x979185a97875250b9cb251218232c86e037f0e58OUT 0xaed19d8ecdb18e2cd101bad38df80781e2c711170 BNB0.00113775
0xb37d0636c77135c2d699c650196cd8680ebfc2730455acd98628d8e74dc2d86aApprove118777302021-10-18 10:48:575 days 22 hrs ago0x979185a97875250b9cb251218232c86e037f0e58OUT Spore Engineering: SPORE Token0 BNB0.000221015
0x4ee152687ae92128d6a497d1c01b207b8c67ddc47438397c292c2206326f74acGive Me This Awe...117911992021-10-15 10:21:448 days 23 hrs ago0x979185a97875250b9cb251218232c86e037f0e58OUT 0xaed19d8ecdb18e2cd101bad38df80781e2c711170 BNB0.00121275
0x69bf21de2a8766e3f97effbd34f292511d679bd5917edf360550cb4641b97579Approve117911942021-10-15 10:21:298 days 23 hrs ago0x979185a97875250b9cb251218232c86e037f0e58OUT Spore Engineering: SPORE Token0 BNB0.000221015
0x23cb01771582a4681745cd25f55da02fc5c3ffecc642817774ec74743025cd1dGive Me This Awe...117546542021-10-14 3:48:2010 days 5 hrs ago0x979185a97875250b9cb251218232c86e037f0e58OUT 0xaed19d8ecdb18e2cd101bad38df80781e2c711170 BNB0.00113775
0x958e1424370fc9a915e97ebec72800268e0bf4ef3e4b53697ad144278f19ce84Approve117546492021-10-14 3:48:0510 days 5 hrs ago0x979185a97875250b9cb251218232c86e037f0e58OUT Spore Engineering: SPORE Token0 BNB0.000221015
0x84f0825bea9dcf458a3d54f4d4a9494b8f22ce7452ccbd5974628f3c17627b40Give Me This Awe...117290402021-10-13 5:59:4711 days 3 hrs ago0x979185a97875250b9cb251218232c86e037f0e58OUT 0xaed19d8ecdb18e2cd101bad38df80781e2c711170 BNB0.00113775
0x14d7b5af3c689b32d371ffe62a603148ea98dc41861924526536f996775a5dbaApprove117290352021-10-13 5:59:3211 days 3 hrs ago0x979185a97875250b9cb251218232c86e037f0e58OUT Spore Engineering: SPORE Token0 BNB0.000221015
0x391fa6eabca1a9433407645f2ac238f6dea17a72a6b212589b2374803a2a24d9Give Me This Awe...117289572021-10-13 5:55:3811 days 3 hrs ago0x979185a97875250b9cb251218232c86e037f0e58OUT 0xaed19d8ecdb18e2cd101bad38df80781e2c711170 BNB0.00113775
0x2b0572d355b6451b6daeb2702b2d92600cc6571511455eb96d0d1e40d1de0d8bApprove117289532021-10-13 5:55:2611 days 3 hrs ago0x979185a97875250b9cb251218232c86e037f0e58OUT Spore Engineering: SPORE Token0 BNB0.000221015
0xd6ee669bf950b6f3740b35a4d5a8662d08943bed3301d896065ae4a21ad938c6Give Me This Awe...117261722021-10-13 3:35:5311 days 5 hrs ago0x979185a97875250b9cb251218232c86e037f0e58OUT 0xaed19d8ecdb18e2cd101bad38df80781e2c711170 BNB0.00113775
0x799f729f7309e10789e942faa6a371f87ca9466ed29397b9804bd7d3bda81b6dApprove117261672021-10-13 3:35:3811 days 5 hrs ago0x979185a97875250b9cb251218232c86e037f0e58OUT Spore Engineering: SPORE Token0 BNB0.000221015
0x41e2d0f04c917f068f93190c408332580ef11dde1522400815c7598fcb63053aGive Me This Awe...117261472021-10-13 3:34:3811 days 5 hrs ago0x979185a97875250b9cb251218232c86e037f0e58OUT 0xaed19d8ecdb18e2cd101bad38df80781e2c711170 BNB0.00113775
0x37864805a615f9b2a9314144d4cf00050d0d584159eef9da90c79b7481acf20bApprove117261422021-10-13 3:34:2311 days 5 hrs ago0x979185a97875250b9cb251218232c86e037f0e58OUT Spore Engineering: SPORE Token0 BNB0.000221015
0x1eecba2ee83e40bbf95f2be4350a9a3f5f5474d975f40066b03fb1863acbb2f8Give Me This Awe...117242222021-10-13 1:58:0211 days 7 hrs ago0x979185a97875250b9cb251218232c86e037f0e58OUT 0xaed19d8ecdb18e2cd101bad38df80781e2c711170 BNB0.00113775
0x08700aa5bf9c7c1ba3023cdc17e54ffaf316c653ef70ca276ebbc671328c364fApprove117242162021-10-13 1:57:4411 days 7 hrs ago0x979185a97875250b9cb251218232c86e037f0e58OUT Spore Engineering: SPORE Token0 BNB0.000221015
0x9bf402c61569eb76a206517cb519aa95f75a362523c695b1472f132e4cc6b418Give Me This Awe...117241762021-10-13 1:55:4411 days 7 hrs ago0x979185a97875250b9cb251218232c86e037f0e58OUT 0xaed19d8ecdb18e2cd101bad38df80781e2c711170 BNB0.00113775
0xc9cfb566e4d2351b2e58711f893143439a97170a86c84c337d6ef1aba9b3eea4Approve117241702021-10-13 1:55:2611 days 7 hrs ago0x979185a97875250b9cb251218232c86e037f0e58OUT Spore Engineering: SPORE Token0 BNB0.000221015
0x5fcd950e00b625ba50d41799908cb748de99bffd344b15696ed86e3b45e02e77Give Me This Awe...117241452021-10-13 1:54:1111 days 7 hrs ago0x979185a97875250b9cb251218232c86e037f0e58OUT 0xaed19d8ecdb18e2cd101bad38df80781e2c711170 BNB0.00113775
0x7b9c8afd258b08a6521d6a1ec6ed84b0789cb76bc204c6108195dcf47aae3e39Approve117241422021-10-13 1:54:0211 days 7 hrs ago0x979185a97875250b9cb251218232c86e037f0e58OUT Spore Engineering: SPORE Token0 BNB0.000221015
0x2d5ec15baeaf821a1683b44a9738236b20a7d1afbe0a358c77c0085139268d43Give Me This Awe...117241242021-10-13 1:53:0811 days 7 hrs ago0x979185a97875250b9cb251218232c86e037f0e58OUT 0xaed19d8ecdb18e2cd101bad38df80781e2c711170 BNB0.00026058
0xfc89b6a4972d6ee2165d308aae879011800c0ad16a0eff15a549d769b3b073cdGive Me This Awe...117241212021-10-13 1:52:5911 days 7 hrs ago0x979185a97875250b9cb251218232c86e037f0e58OUT 0xaed19d8ecdb18e2cd101bad38df80781e2c711170 BNB0.00113775
0x9aa2ec1c7079ea500ac748e2a5d3eeabe774ac15873af939cd50c52740518998Approve117241162021-10-13 1:52:4411 days 7 hrs ago0x979185a97875250b9cb251218232c86e037f0e58OUT Spore Engineering: SPORE Token0 BNB0.000221015
0xff68bd742e351d4e4d9e897ab9b073ff2c3beb27dce96677924569547df3da2bGive Me This Awe...117028132021-10-12 8:00:4812 days 1 hr ago0x979185a97875250b9cb251218232c86e037f0e58OUT 0xaed19d8ecdb18e2cd101bad38df80781e2c711170 BNB0.00113775
0xa048a771d35ea02cc688a53f8f4e58e2996e7c4bd94b45e4fc61685f3e3c8325Approve117028082021-10-12 8:00:3312 days 1 hr ago0x979185a97875250b9cb251218232c86e037f0e58OUT Spore Engineering: SPORE Token0 BNB0.000221015
[ Download CSV Export 
Latest 3 internal transactions
Parent Txn Hash Block From To Value
0x7954c4a37879679f838a4bca0fdfb8a14e80ee7878a82c11122a69b29c1e7ed9116670312021-10-11 1:28:4113 days 8 hrs ago PancakeSwap: Router v20x979185a97875250b9cb251218232c86e037f0e580.002369855262239752 BNB
0xfc3bacdde059d92ef29a4f41c6798196e7e65a7fdcf3ffd560b2910b7276a6d2108807572021-09-13 14:42:2140 days 18 hrs ago PancakeSwap: Router v20x979185a97875250b9cb251218232c86e037f0e583.097100393293444716 BNB
0x1661afbabe4182776858486aee5dab36830d3f2d794dd3e481401edd7d8a7dd1107278592021-09-08 6:15:1246 days 3 hrs ago PancakeSwap: Router v20x979185a97875250b9cb251218232c86e037f0e583.077599707832521272 BNB
[ Download CSV Export 
Loading

Contract Name:
0 BNB

Compiler Version
0

Optimization Enabled:
0 BNB

Other Settings:
-NA-
Block Transaction Gas Used Reward
Age Block Fee Address BC Fee Address Voting Power Jailed Incoming
Block Uncle Number Difficulty Gas Used Reward
Loading
Loading
Make sure to use the "Vote Down" button for any spammy posts, and the "Vote Up" for interesting conversations.